Temp
-14 -14 -14 -14 -13 -13 -13 -14 -14 -14 -14 -14 -15 -15 -15 -15 -15 -15 -15 -15 -15 -15 -14 -14 -14 -14 -14 -14 -14 -14 -14 -14 -14 -14 -14 -13 -13 -13 -13 -14 -14 -14
-14 -13 -14 -14 -13 -14 -14 -14 -14 -15 -14 -15 -15 -15 -15 -15 -15 -15 -15 -15 -15 -15 -15 -15 -14 -14 -14 -14 -14 -14 -14 -14 -14 -14 -14 -13 -13 -13 -14 -14 -14 -14
-14 -14 -14 -14 -14 -14 -14 -14 -15 -15 -15 -15 -15 -15 -15 -15 -15 -15 -15 -15 -15 -15 -15 -15 -14 -14 -14 -14 -14 -14 -14 -14 -14 -14 -14 -14 -13 -13 -14 -14 -14 -14
-14 -14 -14 -14 -14 -14 -14 -14 -15 -15 -15 -15 -15 -15 -15 -15 -15 -15 -15 -15 -15 -15 -15 -15 -14 -14 -14 -14 -14 -14 -14 -14 -14 -14 -14 -14 -14 -14 -14 -14 -14 -14
-14 -14 -14 -14 -14 -14 -14 -14 -15 -15 -15 -15 -15 -15 -15 -15 -15 -15 -15 -15 -15 -15 -15 -15 -15 -14 -14 -14 -14 -14 -14 -14 -14 -14 -14 -14 -14 -14 -14 -14 -14 -14
-14 -14 -14 -14 -14 -14 -14 -14 -15 -15 -15 -15 -16 -16 -16 -15 -15 -15 -15 -15 -15 -15 -15 -15 -15 -14 -14 -14 -14 -15 -15 -15 -15 -14 -14 -14 -14 -14 -14 -14 -14 -14
-14 -14 -14 -14 -14 -14 -14 -14 -15 -15 -15 -15 -16 -16 -16 -16 -16 -16 -15 -15 -15 -15 -15 -15 -15 -15 -15 -15 -15 -15 -15 -15 -15 -15 -15 -14 -14 -14 -14 -14 -14 -15
-14 -14 -14 -14 -14 -14 -15 -15 -15 -15 -15 -16 -16 -16 -16 -15 -16 -16 -15 -15 -15 -15 -15 -15 -15 -15 -15 -15 -15 -15 -15 -15 -15 -15 -15 -15 -15 -14 -14 -14 -14 -14
-14 -14 -14 -14 -14 -15 -15 -15 -15 -15 -15 -16 -16 -16 -16 -16 -16 -16 -16 -15 -15 -15 -15 -15 -15 -15 -15 -15 -15 -15 -15 -15 -15 -15 -15 -15 -15 -15 -15 -15 -14 -14
-14 -14 -14 -14 -14 -15 -15 -15 -15 -15 -16 -16 -16 -16 -16 -16 -16 -16 -16 -16 -15 -15 -15 -15 -15 -15 -15 -15 -15 -15 -15 -15 -15 -15 -15 -15 -15 -15 -15 -15 -15 -15
-14 -14 -14 -14 -14 -15 -15 -15 -15 -15 -16 -16 -16 -16 -16 -16 -16 -16 -16 -16 -15 -15 -15 -15 -15 -15 -15 -15 -15 -15 -15 -15 -15 -15 -15 -15 -15 -15 -15 -15 -15 -15
-14 -14 -14 -14 -15 -15 -15 -15 -15 -15 -15 -16 -16 -16 -16 -16 -16 -16 -16 -16 -15 -15 -15 -15 -15 -15 -15 -15 -15 -15 -15 -15 -16 -15 -15 -15 -15 -15 -15 -15 -16 -16
-14 -14 -14 -14 -15 -15 -15 -15 -15 -15 -15 -15 -15 -15 -16 -16 -16 -15 -15 -16 -16 -15 -15 -15 -15 -15 -15 -15 -15 -15 -15 -16 -16 -16 -15 -15 -15 -15 -15 -16 -16 -16
-14 -14 -14 -14 -15 -15 -15 -15 -15 -15 -15 -15 -15 -15 -15 -15 -15 -15 -15 -16 -16 -16 -16 -16 -16 -15 -15 -15 -15 -15 -15 -16 -16 -16 -16 -15 -15 -15 -15 -16 -16 -16
-15 -15 -15 -15 -15 -15 -15 -15 -15 -15 -15 -15 -15 -15 -15 -16 -16 -16 -16 -16 -16 -16 -16 -16 -16 -16 -16 -16 -16 -16 -16 -16 -16 -16 -16 -16 -15 -15 -15 -16 -16 -16
-15 -15 -15 -15 -15 -15 -15 -15 -15 -15 -15 -15 -15 -16 -16 -16 -16 -16 -16 -16 -16 -16 -16 -16 -16 -16 -16 -16 -16 -16 -16 -16 -16 -16 -16 -16 -15 -15 -16 -16 -16 -16
-15 -15 -15 -15 -15 -15 -15 -15 -15 -15 -16 -16 -16 -16 -16 -16 -16 -16 -16 -16 -16 -16 -16 -16 -16 -16 -16 -16 -16 -16 -16 -16 -16 -16 -16 -16 -16 -16 -16 -16 -16 -16
-15 -15 -15 -15 -15 -15 -15 -15 -15 -15 -16 -16 -16 -16 -16 -16 -16 -16 -16 -16 -16 -16 -16 -16 -16 -16 -16 -16 -16 -16 -16 -16 -16 -16 -16 -16 -16 -16 -16 -16 -16 -16
-15 -15 -15 -15 -15 -15 -15 -15 -15 -15 -16 -16 -16 -16 -16 -16 -16 -16 -16 -16 -16 -16 -16 -16 -16 -16 -16 -16 -16 -16 -16 -16 -16 -16 -16 -16 -16 -16 -16 -16 -16 -16
-15 -15 -15 -15 -15 -15 -15 -16 -15 -15 -16 -15 -15 -16 -16 -16 -16 -16 -16 -16 -16 -16 -15 -16 -16 -16 -16 -16 -16 -16 -16 -16 -16 -16 -16 -16 -16 -16 -16 -16 -16 -16
-15 -15 -15 -15 -15 -15 -15 -15 -15 -15 -15 -15 -15 -16 -15 -15 -16 -16 -16 -16 -16 -16 -16 -16 -16 -16 -16 -16 -16 -16 -16 -16 -16 -16 -16 -16 -16 -16 -16 -16 -16 -16
-15 -15 -15 -15 -15 -15 -15 -15 -15 -16 -16 -16 -16 -16 -15 -15 -15 -15 -16 -16 -16 -16 -16 -16 -16 -16 -16 -16 -16 -16 -16 -16 -16 -17 -17 -16 -16 -16 -16 -16 -16 -16
-15 -15 -15 -15 -16 -16 -16 -16 -16 -16 -16 -16 -16 -16 -16 -16 -16 -16 -16 -16 -16 -16 -16 -16 -16 -16 -16 -16 -16 -16 -16 -16 -16 -17 -17 -17 -17 -17 -17 -17 -17 -17
-15 -15 -16 -16 -16 -16 -16 -16 -16 -16 -16 -16 -16 -16 -16 -16 -16 -16 -16 -16 -16 -16 -16 -16 -16 -16 -16 -16 -16 -16 -16 -16 -17 -17 -17 -17 -17 -17 -17 -17 -17 -17
-16 -16 -16 -16 -16 -16 -16 -16 -16 -16 -16 -16 -16 -16 -16 -16 -16 -16 -16 -16 -16 -16 -16 -16 -16 -16 -16 -16 -16 -16 -16 -17 -17 -17 -17 -17 -17 -17 -17 -17 -17 -17
-16 -16 -16 -16 -16 -16 -16 -16 -16 -16 -16 -16 -16 -16 -16 -16 -16 -16 -16 -16 -16 -16 -17 -17 -17 -16 -16 -16 -17 -17 -17 -17 -17 -17 -17 -17 -17 -17 -17 -17 -17 -17
Height
5769 5769 5770 5771 5773 5774 5774 5775 5776 5778 5780 5782 5783 5784 5785 5785 5786 5787 5788 5789 5790 5790 5791 5792 5792 5793 5794 5794 5795 5796 5797 5797 5798 5798 5799 5799 5799 5798 5799 5799 5800 5800
5767 5767 5768 5770 5771 5772 5772 5773 5774 5776 5778 5779 5781 5782 5783 5783 5784 5785 5786 5787 5788 5789 5789 5790 5790 5791 5792 5792 5793 5794 5795 5796 5796 5797 5797 5798 5797 5797 5797 5798 5798 5799
5765 5765 5767 5768 5769 5769 5770 5771 5772 5774 5775 5777 5778 5780 5781 5781 5782 5783 5784 5785 5786 5787 5788 5788 5789 5789 5790 5790 5791 5792 5793 5794 5794 5795 5796 5796 5796 5796 5796 5796 5797 5797
5762 5763 5765 5765 5766 5767 5768 5769 5771 5772 5773 5775 5776 5778 5779 5779 5780 5781 5782 5783 5784 5785 5786 5786 5787 5787 5788 5788 5789 5790 5791 5791 5792 5793 5794 5794 5795 5795 5795 5795 5795 5795
5761 5762 5762 5763 5764 5765 5766 5767 5769 5770 5772 5773 5775 5776 5777 5777 5778 5779 5780 5781 5782 5783 5784 5784 5785 5786 5786 5787 5787 5788 5789 5789 5791 5792 5792 5793 5793 5793 5793 5794 5794 5794
5759 5759 5760 5760 5762 5763 5765 5765 5767 5768 5769 5771 5773 5774 5775 5775 5776 5777 5778 5779 5780 5781 5782 5783 5784 5784 5785 5785 5786 5786 5787 5788 5789 5790 5790 5791 5791 5791 5792 5792 5792 5792
5756 5756 5757 5758 5759 5761 5763 5763 5765 5766 5767 5769 5770 5772 5773 5773 5774 5775 5776 5777 5778 5779 5780 5781 5782 5783 5783 5784 5784 5785 5786 5787 5787 5788 5789 5789 5789 5790 5790 5790 5791 5791
5753 5753 5754 5755 5757 5758 5760 5761 5762 5763 5765 5766 5768 5769 5770 5771 5772 5773 5774 5775 5776 5777 5778 5779 5780 5781 5781 5782 5783 5783 5784 5785 5786 5786 5787 5787 5788 5788 5789 5789 5789 5789
5750 5750 5752 5753 5755 5756 5758 5759 5760 5761 5763 5764 5765 5767 5768 5769 5769 5770 5771 5773 5774 5775 5776 5776 5777 5778 5779 5780 5781 5781 5782 5783 5784 5784 5785 5785 5786 5786 5787 5787 5787 5787
5748 5749 5750 5752 5753 5754 5756 5757 5758 5759 5761 5762 5763 5764 5765 5766 5767 5768 5769 5770 5771 5772 5773 5774 5775 5776 5777 5778 5779 5780 5780 5781 5782 5782 5782 5783 5783 5784 5784 5784 5785 5785
5746 5747 5748 5749 5751 5753 5754 5756 5757 5758 5759 5760 5761 5762 5763 5764 5764 5766 5767 5768 5769 5770 5771 5772 5773 5774 5775 5776 5777 5778 5778 5779 5779 5780 5780 5780 5781 5781 5781 5782 5782 5783
5745 5746 5747 5748 5749 5751 5752 5754 5755 5756 5757 5758 5759 5760 5761 5761 5762 5763 5764 5765 5766 5768 5769 5770 5771 5772 5773 5774 5775 5776 5776 5777 5777 5778 5778 5778 5778 5778 5779 5779 5779 5780
5744 5746 5747 5747 5748 5749 5750 5752 5753 5755 5755 5756 5757 5758 5759 5759 5760 5761 5762 5763 5765 5766 5767 5768 5769 5770 5771 5772 5773 5773 5774 5774 5775 5775 5775 5775 5775 5776 5776 5776 5776 5776
5742 5743 5744 5745 5746 5747 5748 5749 5751 5752 5754 5755 5756 5756 5757 5757 5758 5759 5760 5762 5763 5764 5765 5766 5767 5768 5769 5770 5770 5771 5771 5772 5772 5772 5772 5772 5772 5772 5772 5773 5773 5773
5739 5741 5741 5742 5743 5744 5745 5747 5749 5750 5751 5753 5754 5754 5754 5755 5756 5757 5758 5760 5761 5762 5763 5764 5765 5766 5766 5767 5768 5768 5768 5768 5769 5769 5769 5769 5769 5769 5769 5769 5770 5770
5736 5737 5738 5739 5740 5741 5743 5745 5746 5747 5749 5750 5751 5752 5752 5753 5753 5754 5756 5757 5758 5760 5761 5762 5763 5763 5763 5764 5765 5765 5765 5765 5765 5765 5765 5765 5765 5766 5766 5766 5767 5768
5733 5734 5736 5737 5737 5739 5740 5742 5744 5745 5746 5747 5748 5749 5750 5750 5751 5752 5753 5754 5756 5757 5759 5759 5760 5760 5761 5761 5761 5762 5762 5762 5762 5762 5762 5762 5762 5762 5762 5763 5764 5765
5731 5733 5734 5734 5735 5737 5738 5739 5741 5742 5744 5745 5746 5746 5747 5748 5749 5749 5750 5752 5753 5754 5755 5756 5756 5757 5758 5758 5758 5759 5759 5759 5759 5759 5759 5759 5759 5759 5760 5760 5761 5762
5729 5730 5731 5732 5733 5735 5736 5736 5738 5739 5741 5742 5742 5743 5744 5745 5746 5747 5748 5749 5750 5751 5752 5753 5753 5754 5754 5755 5755 5756 5756 5756 5756 5756 5756 5755 5756 5756 5757 5757 5758 5758
5726 5727 5729 5730 5731 5732 5733 5734 5735 5736 5737 5738 5739 5740 5741 5742 5743 5744 5745 5746 5747 5748 5748 5749 5750 5750 5750 5751 5752 5752 5752 5752 5752 5753 5752 5752 5753 5753 5753 5754 5754 5755
5723 5724 5725 5727 5729 5730 5731 5732 5732 5733 5733 5734 5735 5737 5738 5739 5740 5740 5741 5742 5743 5744 5744 5744 5745 5745 5746 5746 5747 5748 5749 5748 5749 5749 5749 5749 5750 5750 5750 5751 5751 5752
5721 5722 5723 5724 5726 5727 5729 5729 5729 5730 5731 5731 5732 5733 5734 5735 5736 5737 5737 5738 5738 5739 5739 5739 5740 5740 5741 5742 5743 5744 5744 5744 5745 5745 5745 5746 5747 5747 5748 5748 5749 5749
5718 5719 5720 5722 5723 5724 5725 5726 5727 5727 5728 5729 5729 5730 5731 5732 5732 5733 5733 5734 5734 5735 5735 5736 5736 5736 5737 5738 5739 5739 5739 5740 5741 5741 5742 5743 5744 5745 5745 5745 5746 5747
5715 5716 5717 5719 5720 5721 5722 5723 5724 5725 5725 5726 5727 5728 5728 5729 5729 5730 5730 5731 5731 5732 5732 5733 5733 5733 5734 5734 5735 5735 5735 5736 5737 5738 5739 5740 5741 5742 5742 5742 5742 5743
5712 5714 5715 5716 5717 5718 5719 5720 5721 5722 5722 5723 5724 5724 5725 5725 5726 5727 5728 5728 5728 5729 5729 5730 5730 5731 5731 5731 5732 5732 5732 5733 5734 5735 5736 5737 5737 5737 5738 5738 5737 5737
5710 5711 5712 5713 5714 5715 5716 5717 5718 5718 5719 5720 5720 5721 5721 5722 5723 5724 5725 5725 5726 5726 5726 5727 5728 5728 5728 5728 5729 5729 5730 5731 5731 5732 5733 5733 5732 5733 5733 5732 5732 5732
Wind_Speed
20 20 22 24 25 23 21 18 15 15 15 15 14 14 14 15 16 16 16 16 16 16 16 17 17 16 16 17 17 17 16 16 16 17 17 18 18 18 17 15 12 12
20 20 21 24 25 24 21 17 16 16 16 16 16 16 16 16 17 16 16 16 17 17 18 18 18 17 17 17 17 16 16 16 16 17 17 17 17 17 17 15 13 13
21 20 20 23 26 24 21 18 17 17 17 17 17 17 17 18 17 17 17 17 18 18 18 18 18 18 18 17 16 16 16 16 16 16 17 17 16 16 15 15 15 14
20 19 19 22 24 23 19 18 18 19 18 18 17 17 18 19 18 18 18 18 18 19 18 18 18 18 17 16 16 16 16 16 16 16 17 16 15 14 14 15 15 15
19 18 19 19 20 19 16 16 18 19 18 18 18 18 18 18 18 18 18 18 18 18 18 17 17 17 16 16 16 16 16 16 15 16 16 15 14 14 14 15 15 16
19 19 20 18 19 18 15 15 18 19 20 19 19 18 17 18 19 18 18 18 18 17 17 17 17 17 17 16 16 16 15 15 15 15 14 14 14 14 14 15 15 16
20 20 20 20 21 19 15 16 19 20 21 20 19 18 18 19 19 19 19 18 18 17 17 17 18 18 18 17 17 16 16 15 14 13 13 12 13 13 14 15 15 15
21 21 20 21 24 22 16 16 19 21 21 20 19 20 20 21 21 20 19 18 18 17 17 18 19 19 19 19 18 17 17 17 15 14 13 12 12 13 12 13 14 15
21 21 20 21 25 23 16 16 19 20 20 19 19 19 20 21 21 19 19 19 19 18 18 19 19 19 19 19 18 18 18 18 18 16 16 15 14 14 13 13 14 14
18 19 19 20 24 23 18 17 19 19 18 18 18 18 18 20 20 19 19 19 20 20 19 19 17 16 17 17 17 18 18 18 19 18 18 17 17 16 16 16 16 16
17 17 18 20 23 23 21 20 21 20 18 19 18 18 19 20 19 19 20 20 20 20 20 18 16 15 14 15 15 16 18 19 19 19 18 18 17 18 18 18 19 19
17 16 18 21 23 23 22 22 22 22 21 21 20 20 20 21 21 21 21 21 21 21 20 19 18 16 15 15 15 16 17 18 19 20 19 18 18 18 18 19 20 21
20 19 21 23 24 23 22 22 23 23 23 22 21 21 21 22 23 23 23 22 22 22 21 20 19 18 17 17 17 17 18 19 20 21 21 21 20 20 20 21 21 22
22 22 23 23 23 23 22 22 22 22 22 21 21 21 22 23 24 24 23 23 23 23 22 22 21 20 19 19 19 20 20 21 21 22 23 23 24 23 23 23 23 23
22 22 23 23 22 23 23 21 21 21 21 20 20 21 22 23 23 23 23 23 24 24 24 23 22 22 21 21 21 21 21 21 22 23 24 25 26 26 25 25 25 25
22 22 23 24 23 24 24 22 20 21 21 20 20 21 22 22 23 23 23 24 24 24 24 24 24 25 24 22 21 21 21 21 22 24 25 26 27 27 27 27 26 25
24 23 23 23 23 24 25 24 22 22 22 21 21 21 21 21 23 23 23 24 24 24 24 25 26 27 26 24 23 23 22 22 23 24 25 27 28 28 27 26 25 24
24 22 22 23 22 22 23 24 23 23 23 23 23 22 22 22 23 23 23 24 23 23 25 27 28 29 29 29 29 27 26 25 25 25 26 28 28 27 26 25 25 24
24 22 21 22 21 20 22 24 24 24 24 25 25 24 24 24 24 25 25 25 24 24 26 27 29 30 31 31 31 30 29 29 28 27 27 27 27 27 26 26 25 25
24 23 22 23 23 22 23 24 25 25 26 27 27 26 26 26 27 28 28 28 27 28 29 31 32 34 34 34 32 30 31 33 31 28 27 27 27 26 26 26 26 26
25 23 23 23 24 23 23 24 25 26 26 28 28 29 29 29 29 30 31 32 32 32 33 34 34 35 36 37 35 33 34 36 33 30 28 27 26 26 26 27 27 27
28 27 26 26 26 25 25 25 26 27 28 29 31 33 33 32 30 30 30 31 32 32 31 31 30 31 33 35 36 36 36 35 33 31 29 28 27 26 27 28 29 29
31 30 29 28 28 27 27 28 28 29 30 31 32 32 31 30 28 26 25 25 26 27 27 27 27 27 28 30 34 35 32 30 30 30 29 27 27 27 28 29 28 29
31 29 27 26 26 26 27 28 28 28 30 29 28 26 25 25 25 24 24 24 24 25 26 26 26 25 25 27 29 28 27 27 28 28 27 27 27 27 28 29 30 30
27 25 24 25 25 26 27 26 26 26 27 27 26 25 24 24 24 24 24 24 25 26 26 26 25 24 25 26 27 26 25 26 27 27 27 28 29 29 30 31 33 34
23 23 24 25 25 26 26 26 27 28 28 27 26 25 25 24 24 24 24 24 25 25 26 26 25 25 25 26 27 26 26 27 27 28 29 30 31 31 33 34 36 37
Wind_Direction
257 251 246 239 235 247 261 255 243 236 230 230 234 239 248 253 254 252 249 246 245 246 248 251 255 260 265 267 267 266 266 266 266 265 266 270 274 277 276 272 264 257
255 254 251 242 242 253 260 253 241 230 224 227 233 239 246 251 253 251 246 245 245 247 249 252 257 262 265 265 263 262 264 265 265 266 267 270 272 273 273 269 258 250
257 258 255 248 250 254 255 252 240 226 222 226 232 239 245 251 253 249 246 246 246 248 251 254 258 260 260 260 259 260 262 263 264 266 267 268 268 268 267 263 256 250
259 260 258 255 252 249 249 248 238 226 223 228 234 240 245 249 250 246 246 247 248 250 252 253 254 254 253 254 256 259 261 262 263 265 266 265 263 262 260 256 253 250
255 256 257 253 240 238 247 244 233 227 227 231 236 240 244 246 244 244 246 249 251 250 249 249 248 248 249 252 256 259 259 260 260 261 262 260 256 254 253 251 247 244
250 252 254 245 227 229 242 235 226 226 227 230 234 237 240 239 239 242 245 247 247 244 243 245 245 246 250 254 256 256 255 254 254 255 255 255 253 249 248 247 244 241
248 249 249 241 227 226 232 227 224 226 227 229 231 233 235 236 238 240 240 240 239 238 241 243 244 248 252 253 252 250 249 248 247 249 251 253 253 249 246 244 242 238
249 248 246 239 228 224 227 227 225 227 228 228 228 228 231 234 237 237 234 232 232 237 244 245 247 250 251 251 250 248 247 245 244 245 248 251 254 253 249 245 242 239
250 248 245 238 228 226 233 236 230 227 228 227 226 227 229 231 233 231 230 231 234 240 246 248 249 251 251 250 247 245 245 244 244 245 246 249 252 254 253 250 247 244
257 254 246 237 231 233 244 245 232 225 225 225 223 226 229 228 226 227 231 234 238 242 243 244 245 248 249 248 245 243 244 245 245 245 246 247 249 251 252 251 250 249
258 255 243 235 233 238 246 243 230 223 225 225 221 224 229 226 223 228 234 235 237 239 239 238 241 245 249 251 250 246 244 244 244 243 244 245 247 250 252 252 252 252
246 244 237 235 234 238 245 243 231 225 226 225 221 224 227 224 222 227 231 233 234 236 236 237 241 247 252 257 258 256 251 247 245 244 245 248 251 253 254 254 254 254
240 242 241 240 238 239 243 241 235 232 228 225 224 227 229 229 229 230 232 233 234 234 235 238 244 250 255 259 262 262 259 255 252 251 252 254 257 258 258 258 256 254
238 241 244 243 241 240 239 235 235 237 234 230 230 233 235 236 237 237 236 234 235 237 239 242 247 253 258 262 263 261 258 256 255 256 256 256 257 257 257 257 255 254
240 243 244 242 239 237 234 230 231 234 234 234 234 235 238 239 240 240 239 237 238 240 243 246 250 254 258 261 262 260 257 255 254 255 255 255 254 254 255 255 255 255
242 243 242 240 236 231 227 227 229 229 229 231 233 235 238 240 241 242 243 242 242 243 246 249 251 252 255 258 261 260 257 256 255 254 253 252 252 251 253 254 256 257
243 241 238 237 235 230 226 228 231 230 229 230 233 237 239 241 244 246 248 248 248 249 250 251 250 251 253 256 260 262 262 262 261 257 254 252 250 250 251 253 255 257
243 242 235 233 235 235 233 235 238 237 236 237 240 244 244 245 247 250 252 253 253 254 256 257 256 255 255 257 260 263 264 264 264 262 257 253 251 250 251 252 253 254
245 243 235 233 236 236 236 240 243 244 244 245 247 250 250 249 250 252 253 253 253 255 259 262 262 261 259 259 259 261 263 264 262 259 255 251 250 250 250 251 253 255
244 241 235 234 237 235 236 242 246 247 249 250 251 254 254 252 252 254 254 254 254 257 260 261 261 261 261 260 259 260 263 264 260 253 250 249 248 250 252 254 257 258
241 237 234 236 239 239 240 245 249 250 253 256 257 259 259 257 255 257 259 261 263 263 262 260 259 258 257 257 257 257 261 263 258 248 245 246 249 253 257 258 259 260
237 233 233 234 237 238 240 242 246 251 254 257 259 260 261 259 259 260 260 260 260 258 257 258 259 257 253 251 253 256 258 259 253 246 244 247 251 256 259 260 260 261
236 234 234 234 235 238 239 240 244 248 252 255 259 260 259 259 261 262 258 252 250 250 252 256 261 262 256 252 253 255 254 251 247 244 246 251 256 259 261 262 263 262
234 233 233 235 236 237 240 243 245 248 251 255 260 262 260 259 260 260 255 250 248 249 253 257 261 262 258 254 252 251 246 243 243 245 249 255 259 261 263 265 265 264
230 231 234 238 240 240 242 245 247 248 252 255 257 259 260 260 259 258 255 252 252 253 255 257 259 258 254 251 249 246 244 243 245 249 253 257 261 264 267 269 270 269
232 234 236 239 242 241 241 243 245 248 251 253 255 257 259 259 258 256 254 252 252 254 255 256 256 255 252 249 249 249 248 249 252 256 259 262 265 268 270 271 271 273